Rensselaer, IN

4:29 AM CST on December 16, 2019 (GMT -0600)
Jasper County

Weather History for KRZL - November, 2019

Change the Weather History Date:

Wednesday, November 20, 2019

  Actual Average (KIKK) Record (KIKK)
Temperature  
Mean Temperature 42 °F -  
Max Temperature 48 °F 52 °F 71 °F (1979)
Min Temperature 35 °F 29 °F 9 °F (2014)
Degree Days  
Heating Degree Days 24    
Moisture  
Dew Point 37 °F    
Average Humidity 86    
Maximum Humidity 100    
Minimum Humidity 62    
Precipitation  
Precipitation 0.00 in - - ()
Sea Level Pressure  
Sea Level Pressure 30.15 in    
Wind  
Wind Speed 3 mph ()    
Max Wind Speed 13 mph    
Max Gust Speed -    
Visibility 6.8 miles    
Events      
Averages and records for this station are not official NWS values.
T = Trace of Precipitation, MM = Missing Value Source: Averaged Metar Reports

Daily Weather History Graph

Daily Weather History Graph

Search for Another Location

Airport or City:

Astronomy

Nov. 20, 2019 Rise Set
Actual Time 6:41 AM CST 4:26 PM CST
Civil Twilight 6:11 AM CST 4:56 PM CST
Nautical Twilight 5:38 AM CST 5:29 PM CST
Astronomical Twilight 5:05 AM CST 6:02 PM CST
Moon No Moon Rise 1:25 PM CST (11/20)
Length of Visible Light 10h 44m
Length of Day
9h 44m
Last Quarter, 40% of the Moon is Illuminated
Nov 20
Last Quarter
Nov 26
New
Dec 4
First Quarter
Dec 11
Full
Dec 18
Last Quarter

Hourly Weather History & Observations

Time (CST) Temp. Windchill Dew Point Humidity Pressure Visibility Wind Dir Wind Speed Gust Speed Precip Events Conditions
12:15 AM 37.4 °F - 37.4 °F 100% 30.03 in 3.0 mi Calm Calm - N/A   Overcast
12:35 AM 37.4 °F - 37.4 °F 100% 30.04 in 3.0 mi Calm Calm - N/A   Overcast
12:55 AM 37.4 °F - 37.4 °F 100% 30.06 in 4.0 mi Calm Calm - N/A   Overcast
1:15 AM 37.4 °F 34.9 °F 37.4 °F 100% 30.07 in 4.0 mi West 3.5 mph - N/A   Overcast
1:35 AM 37.4 °F 34.9 °F 37.4 °F 100% 30.08 in 4.0 mi West 3.5 mph - N/A   Overcast
1:55 AM 37.4 °F - 37.4 °F 100% 30.08 in 4.0 mi Calm Calm - N/A   Overcast
2:15 AM 37.4 °F 34.9 °F 35.6 °F 93% 30.09 in 3.0 mi WSW 3.5 mph - N/A   Overcast
2:35 AM 37.4 °F - 35.6 °F 93% 30.11 in 3.0 mi Calm Calm - N/A   Overcast
2:55 AM 37.4 °F - 35.6 °F 93% 30.11 in 3.0 mi Calm Calm - N/A   Overcast
3:15 AM 37.4 °F - 35.6 °F 93% 30.11 in 3.0 mi Calm Calm - N/A   Overcast
3:35 AM 37.4 °F - 35.6 °F 93% 30.12 in 3.0 mi Calm Calm - N/A   Overcast
3:55 AM 37.4 °F - 35.6 °F 93% 30.12 in 3.0 mi Calm Calm - N/A   Overcast
4:15 AM 37.4 °F - 35.6 °F 93% 30.13 in 3.0 mi Calm Calm - N/A   Overcast
4:35 AM 37.4 °F - 35.6 °F 93% 30.12 in 3.0 mi Calm Calm - N/A   Overcast
4:55 AM 37.4 °F - 35.6 °F 93% 30.13 in 2.5 mi Calm Calm - N/A   Overcast
5:15 AM 37.4 °F - 35.6 °F 93% 30.13 in 2.5 mi Calm Calm - N/A   Overcast
5:35 AM 35.6 °F - 35.6 °F 100% 30.15 in 1.8 mi Calm Calm - N/A   Overcast
5:55 AM 35.6 °F - 35.6 °F 100% 30.16 in 2.5 mi Calm Calm - N/A   Overcast
6:15 AM 37.4 °F - 35.6 °F 93% 30.16 in 2.5 mi Calm Calm - N/A   Overcast
6:35 AM 37.4 °F - 35.6 °F 93% 30.16 in 2.5 mi Calm Calm - N/A   Overcast
6:55 AM 37.4 °F - 35.6 °F 93% 30.17 in 1.8 mi Calm Calm - N/A   Overcast
7:15 AM 37.4 °F - 35.6 °F 93% 30.18 in 1.5 mi Calm Calm - N/A   Overcast
7:35 AM 37.4 °F - 37.4 °F 100% 30.19 in 1.8 mi Calm Calm - N/A   Overcast
7:55 AM 37.4 °F - 37.4 °F 100% 30.19 in 2.0 mi Calm Calm - N/A   Overcast
8:15 AM 37.4 °F - 37.4 °F 100% 30.20 in 2.0 mi Calm Calm - N/A   Overcast
8:55 AM 41.0 °F - 37.4 °F 87% 30.21 in 3.0 mi Calm Calm - N/A   Overcast
9:15 AM 41.0 °F - 37.4 °F 87% 30.21 in 4.0 mi Calm Calm - N/A   Overcast
9:35 AM 42.8 °F 41.1 °F 37.4 °F 81% 30.21 in 5.0 mi South 3.5 mph - N/A   Overcast
9:55 AM 42.8 °F 39.3 °F 39.2 °F 87% 30.21 in 5.0 mi SSE 5.8 mph - N/A   Mostly Cloudy
10:15 AM 44.6 °F 43.1 °F 39.2 °F 81% 30.21 in 7.0 mi SSE 3.5 mph - N/A   Scattered Clouds
10:35 AM 44.6 °F 43.1 °F 37.4 °F 76% 30.21 in 7.0 mi SSW 3.5 mph - N/A   Clear
10:55 AM 46.4 °F 43.5 °F 39.2 °F 76% 30.21 in 10.0 mi South 5.8 mph - N/A   Clear
11:15 AM 46.4 °F 45.2 °F 37.4 °F 71% 30.21 in 10.0 mi SSE 3.5 mph - N/A   Scattered Clouds
11:35 AM 46.4 °F 44.3 °F 35.6 °F 66% 30.20 in 10.0 mi South 4.6 mph - N/A   Overcast
11:55 AM 46.4 °F 44.3 °F 35.6 °F 66% 30.19 in 10.0 mi South 4.6 mph - N/A   Mostly Cloudy
12:15 PM 46.4 °F 42.9 °F 35.6 °F 66% 30.19 in 10.0 mi South 6.9 mph - N/A   Overcast
12:35 PM 48.2 °F - 35.6 °F 62% 30.19 in 10.0 mi South 8.1 mph - N/A   Overcast
12:55 PM 48.2 °F - 35.6 °F 62% 30.18 in 10.0 mi SSE 6.9 mph - N/A   Mostly Cloudy
1:15 PM 48.2 °F - 37.4 °F 66% 30.18 in 10.0 mi SSE 6.9 mph - N/A   Scattered Clouds
1:55 PM 46.4 °F 43.5 °F 37.4 °F 71% 30.17 in 10.0 mi SE 5.8 mph - N/A   Mostly Cloudy
2:15 PM 48.2 °F - 37.4 °F 66% 30.17 in 10.0 mi SSE 6.9 mph - N/A   Overcast
2:35 PM 46.4 °F 42.4 °F 35.6 °F 66% 30.17 in 10.0 mi SSE 8.1 mph - N/A   Mostly Cloudy
2:55 PM 46.4 °F 42.9 °F 37.4 °F 71% 30.17 in 10.0 mi SSE 6.9 mph - N/A   Scattered Clouds
3:15 PM 46.4 °F 43.5 °F 37.4 °F 71% 30.17 in 10.0 mi SSE 5.8 mph - N/A   Scattered Clouds
3:35 PM 44.6 °F 42.2 °F 37.4 °F 76% 30.18 in 10.0 mi SSE 4.6 mph - N/A   Clear
3:55 PM 44.6 °F 41.4 °F 37.4 °F 76% 30.18 in 10.0 mi SSE 5.8 mph - N/A   Clear
4:15 PM 42.8 °F 39.3 °F 37.4 °F 81% 30.17 in 10.0 mi SSE 5.8 mph - N/A   Clear
4:35 PM 42.8 °F 39.3 °F 35.6 °F 76% 30.17 in 10.0 mi SE 5.8 mph - N/A   Clear
4:55 PM 42.8 °F 39.3 °F 37.4 °F 81% 30.17 in 10.0 mi SE 5.8 mph - N/A   Clear
5:15 PM 42.8 °F 39.3 °F 35.6 °F 76% 30.17 in 10.0 mi SE 5.8 mph - N/A   Clear
5:35 PM 41.0 °F 37.1 °F 35.6 °F 81% 30.17 in 10.0 mi ESE 5.8 mph - N/A   Clear
5:55 PM 41.0 °F 36.4 °F 37.4 °F 87% 30.17 in 10.0 mi SE 6.9 mph - N/A   Clear
6:15 PM 41.0 °F 36.4 °F 35.6 °F 81% 30.18 in 10.0 mi SE 6.9 mph - N/A   Clear
6:35 PM 41.0 °F 37.1 °F 35.6 °F 81% 30.19 in 10.0 mi SSE 5.8 mph - N/A   Clear
6:55 PM 41.0 °F 37.1 °F 35.6 °F 81% 30.19 in 10.0 mi SSE 5.8 mph - N/A   Clear
7:15 PM 41.0 °F 35.8 °F 35.6 °F 81% 30.17 in 10.0 mi SSE 8.1 mph - N/A   Scattered Clouds
7:35 PM 41.0 °F 35.8 °F 37.4 °F 87% 30.17 in 10.0 mi SSE 8.1 mph - N/A   Mostly Cloudy
7:55 PM 41.0 °F 35.2 °F 37.4 °F 87% 30.17 in 10.0 mi SSE 9.2 mph - N/A   Overcast
8:15 PM 41.0 °F 34.3 °F 37.4 °F 87% 30.16 in 7.0 mi SSE 11.5 mph - N/A   Overcast
8:35 PM 41.0 °F 34.7 °F 37.4 °F 87% 30.17 in 7.0 mi SSE 10.4 mph - N/A   Overcast
8:55 PM 41.0 °F 35.8 °F 37.4 °F 87% 30.16 in 7.0 mi SSE 8.1 mph - N/A   Overcast
9:15 PM 41.0 °F 34.7 °F 37.4 °F 87% 30.16 in 7.0 mi SSE 10.4 mph - N/A   Overcast
9:35 PM 41.0 °F 34.3 °F 37.4 °F 87% 30.16 in 7.0 mi SSE 11.5 mph - N/A   Overcast
9:55 PM 41.0 °F 34.3 °F 37.4 °F 87% 30.14 in 10.0 mi SSE 11.5 mph - N/A   Scattered Clouds
10:15 PM 41.0 °F 33.9 °F 37.4 °F 87% 30.13 in 10.0 mi SSE 12.7 mph - N/A   Clear
10:35 PM 39.2 °F 31.6 °F 37.4 °F 93% 30.13 in 10.0 mi SSE 12.7 mph - N/A   Clear
10:55 PM 39.2 °F 32.5 °F 37.4 °F 93% 30.11 in 10.0 mi SSE 10.4 mph - N/A   Clear
11:15 PM 39.2 °F 33.6 °F 37.4 °F 93% 30.11 in 10.0 mi SSE 8.1 mph - N/A   Clear
11:35 PM 39.2 °F 33.6 °F 37.4 °F 93% 30.11 in 10.0 mi SSE 8.1 mph - N/A   Clear
11:55 PM 39.2 °F 33.0 °F 37.4 °F 93% 30.09 in 10.0 mi SSE 9.2 mph - N/A   Clear